Time,TemperatureF,DewpointF,PressureIn,WindDirection,WindDirectionDegrees,WindSpeedMPH,WindSpeedGustMPH,Humidity,HourlyPrecipIn,Conditions,Clouds,dailyrainin,SoftwareType,DateUTC
2013-08-06 00:00:00,62.5,55.5,29.99,SE,142,0.0,0.0,78,0.00,CLR,,0.00,WeatherDisplay:10.37,2013-08-06 04:00:00,
2013-08-06 00:01:00,62.4,55.4,29.99,SE,141,0.0,0.0,78,0.00,CLR,,0.00,WeatherDisplay:10.37,2013-08-06 04:01:00,
2013-08-06 00:03:00,62.3,55.4,29.99,SE,141,0.0,0.0,78,0.00,CLR,,0.00,WeatherDisplay:10.37,2013-08-06 04:03:00,
2013-08-06 00:08:00,62.2,54.9,29.99,SE,142,0.0,0.0,77,0.00,CLR,,0.00,WeatherDisplay:10.37,2013-08-06 04:08:00,
2013-08-06 00:13:00,62.5,54.8,29.99,SE,142,0.0,0.0,76,0.00,CLR,,0.00,WeatherDisplay:10.37,2013-08-06 04:13:00,
2013-08-06 00:18:00,62.5,55.2,29.99,SE,141,0.0,0.0,77,0.00,CLR,,0.00,WeatherDisplay:10.37,2013-08-06 04:18:00,
2013-08-06 00:23:00,62.2,54.9,29.99,SE,142,0.0,0.0,77,0.00,CLR,,0.00,WeatherDisplay:10.37,2013-08-06 04:23:00,
2013-08-06 00:28:00,61.9,55.0,29.99,SE,142,0.0,0.0,78,0.00,CLR,,0.00,WeatherDisplay:10.37,2013-08-06 04:28:00,
2013-08-06 00:33:00,61.8,55.2,29.99,SE,141,0.0,0.0,79,0.00,CLR,,0.00,WeatherDisplay:10.37,2013-08-06 04:33:00,
2013-08-06 00:38:00,61.6,55.0,29.99,SE,142,0.0,0.0,79,0.00,CLR,,0.00,WeatherDisplay:10.37,2013-08-06 04:38:00,
2013-08-06 00:43:00,61.3,55.1,29.99,SE,142,0.0,0.0,80,0.00,CLR,,0.00,WeatherDisplay:10.37,2013-08-06 04:43:00,
2013-08-06 00:48:00,60.9,54.7,29.99,SE,142,0.0,0.0,80,0.00,CLR,,0.00,WeatherDisplay:10.37,2013-08-06 04:48:00,
2013-08-06 00:53:00,60.9,54.3,29.99,SE,142,0.0,0.0,79,0.00,CLR,,0.00,WeatherDisplay:10.37,2013-08-06 04:53:00,
2013-08-06 00:58:00,61.0,54.1,29.98,SE,141,0.0,0.0,78,0.00,CLR,,0.00,WeatherDisplay:10.37,2013-08-06 04:58:00,
2013-08-06 01:03:00,61.1,54.2,29.99,SE,142,0.0,0.0,78,0.00,CLR,,0.00,WeatherDisplay:10.37,2013-08-06 05:03:00,
2013-08-06 01:08:00,61.0,53.7,29.99,SE,142,0.0,0.0,77,0.00,CLR,,0.00,WeatherDisplay:10.37,2013-08-06 05:08:00,
2013-08-06 01:13:00,61.0,54.1,29.98,SE,141,0.0,0.0,78,0.00,CLR,,0.00,WeatherDisplay:10.37,2013-08-06 05:13:00,
2013-08-06 01:18:00,61.4,54.1,29.99,SE,142,0.0,0.0,77,0.00,CLR,,0.00,WeatherDisplay:10.37,2013-08-06 05:18:00,
2013-08-06 01:23:00,61.4,54.1,29.99,SE,142,0.0,0.0,77,0.00,CLR,,0.00,WeatherDisplay:10.37,2013-08-06 05:23:00,
2013-08-06 01:28:00,61.1,53.8,29.99,SE,142,0.0,0.0,77,0.00,CLR,,0.00,WeatherDisplay:10.37,2013-08-06 05:28:00,
2013-08-06 01:33:00,60.9,53.6,29.99,SE,142,0.0,0.0,77,0.00,CLR,,0.00,WeatherDisplay:10.37,2013-08-06 05:33:00,
2013-08-06 01:38:00,60.9,54.0,29.99,SE,142,0.0,0.0,78,0.00,CLR,,0.00,WeatherDisplay:10.37,2013-08-06 05:38:00,
2013-08-06 01:43:00,60.8,53.9,29.99,SE,141,0.0,0.0,78,0.00,CLR,,0.00,WeatherDisplay:10.37,2013-08-06 05:43:00,
2013-08-06 01:48:00,60.8,54.6,29.99,SE,141,0.0,0.0,80,0.00,CLR,,0.00,WeatherDisplay:10.37,2013-08-06 05:48:00,
2013-08-06 01:53:00,60.6,54.7,29.99,SE,142,0.0,0.0,81,0.00,CLR,,0.00,WeatherDisplay:10.37,2013-08-06 05:53:00,
2013-08-06 01:58:00,60.6,54.7,29.99,SE,142,0.0,0.0,81,0.00,CLR,,0.00,WeatherDisplay:10.37,2013-08-06 05:58:00,
2013-08-06 02:03:00,60.5,55.0,29.99,SE,142,0.0,0.0,82,0.00,CLR,,0.00,WeatherDisplay:10.37,2013-08-06 06:03:00,
2013-08-06 02:08:00,60.5,55.0,29.98,SE,142,0.0,0.0,82,0.00,CLR,,0.00,WeatherDisplay:10.37,2013-08-06 06:08:00,
2013-08-06 02:13:00,60.4,54.9,29.98,SE,141,0.0,0.0,82,0.00,CLR,,0.00,WeatherDisplay:10.37,2013-08-06 06:13:00,
2013-08-06 02:18:00,60.5,54.6,29.98,SE,141,0.0,0.0,81,0.00,CLR,,0.00,WeatherDisplay:10.37,2013-08-06 06:18:00,
2013-08-06 02:23:00,60.4,54.9,29.98,SE,142,0.0,0.0,82,0.00,CLR,,0.00,WeatherDisplay:10.37,2013-08-06 06:23:00,
2013-08-06 02:28:00,60.3,54.8,29.98,SE,142,0.0,0.0,82,0.00,CLR,,0.00,WeatherDisplay:10.37,2013-08-06 06:28:00,
2013-08-06 02:33:00,60.3,54.8,29.98,SE,142,0.0,0.0,82,0.00,CLR,,0.00,WeatherDisplay:10.37,2013-08-06 06:33:00,
2013-08-06 02:38:00,60.2,54.7,29.98,SE,142,0.0,0.0,82,0.00,CLR,,0.00,WeatherDisplay:10.37,2013-08-06 06:38:00,
2013-08-06 02:43:00,60.0,54.5,29.98,SE,141,0.0,0.0,82,0.00,CLR,,0.00,WeatherDisplay:10.37,2013-08-06 06:43:00,
2013-08-06 02:48:00,59.9,54.4,29.98,SE,142,0.0,0.0,82,0.00,CLR,,0.00,WeatherDisplay:10.37,2013-08-06 06:48:00,
2013-08-06 02:53:00,59.8,54.3,29.98,SE,141,1.0,1.0,82,0.00,CLR,,0.00,WeatherDisplay:10.37,2013-08-06 06:53:00,
2013-08-06 02:58:00,59.8,54.3,29.97,SE,141,0.0,0.0,82,0.00,CLR,,0.00,WeatherDisplay:10.37,2013-08-06 06:58:00,
2013-08-06 03:03:00,59.8,54.6,29.98,SE,141,0.0,0.0,83,0.00,CLR,,0.00,WeatherDisplay:10.37,2013-08-06 07:03:00,
2013-08-06 03:08:00,59.9,54.7,29.98,SE,142,0.0,0.0,83,0.00,CLR,,0.00,WeatherDisplay:10.37,2013-08-06 07:08:00,
2013-08-06 03:13:00,59.9,54.4,29.97,SE,142,0.0,0.0,82,0.00,CLR,,0.00,WeatherDisplay:10.37,2013-08-06 07:13:00,
2013-08-06 03:18:00,59.8,54.0,29.97,SE,141,0.0,0.0,81,0.00,CLR,,0.00,WeatherDisplay:10.37,2013-08-06 07:18:00,
2013-08-06 03:23:00,59.8,53.6,29.97,SE,142,0.0,0.0,80,0.00,CLR,,0.00,WeatherDisplay:10.37,2013-08-06 07:23:00,
2013-08-06 03:28:00,59.9,53.7,29.97,SE,142,0.0,0.0,80,0.00,CLR,,0.00,WeatherDisplay:10.37,2013-08-06 07:28:00,
2013-08-06 03:33:00,59.8,54.0,29.97,SE,142,0.0,0.0,81,0.00,CLR,,0.00,WeatherDisplay:10.37,2013-08-06 07:33:00,
2013-08-06 03:38:00,59.5,53.7,29.97,SE,141,0.0,0.0,81,0.00,CLR,,0.00,WeatherDisplay:10.37,2013-08-06 07:38:00,
2013-08-06 03:43:00,59.2,53.4,29.97,SE,142,0.0,0.0,81,0.00,CLR,,0.00,WeatherDisplay:10.37,2013-08-06 07:43:00,
2013-08-06 03:48:00,59.1,53.6,29.97,SE,142,0.0,0.0,82,0.00,CLR,,0.00,WeatherDisplay:10.37,2013-08-06 07:48:00,
2013-08-06 03:53:00,59.0,53.8,29.97,SE,141,0.0,0.0,83,0.00,CLR,,0.00,WeatherDisplay:10.37,2013-08-06 07:53:00,
2013-08-06 03:58:00,59.0,53.8,29.97,SE,142,1.2,1.2,83,0.00,CLR,,0.00,WeatherDisplay:10.37,2013-08-06 07:58:00,
2013-08-06 04:03:00,59.0,53.8,29.97,SE,142,0.0,0.0,83,0.00,CLR,,0.00,WeatherDisplay:10.37,2013-08-06 08:03:00,
2013-08-06 04:08:00,59.0,54.2,29.97,SE,142,0.0,0.0,84,0.00,CLR,,0.00,WeatherDisplay:10.37,2013-08-06 08:08:00,
2013-08-06 04:13:00,59.0,54.2,29.97,SE,142,0.0,0.0,84,0.00,CLR,,0.00,WeatherDisplay:10.37,2013-08-06 08:13:00,
2013-08-06 04:18:00,59.0,54.2,29.97,SE,141,0.0,0.0,84,0.00,CLR,,0.00,WeatherDisplay:10.37,2013-08-06 08:18:00,
2013-08-06 04:23:00,59.0,54.2,29.97,SE,141,0.0,0.0,84,0.00,CLR,,0.00,WeatherDisplay:10.37,2013-08-06 08:23:00,
2013-08-06 04:28:00,59.0,54.2,29.97,SE,142,0.0,0.0,84,0.00,CLR,,0.00,WeatherDisplay:10.37,2013-08-06 08:28:00,
2013-08-06 04:33:00,58.7,53.9,29.97,SE,142,0.0,0.0,84,0.00,CLR,,0.00,WeatherDisplay:10.37,2013-08-06 08:33:00,
2013-08-06 04:38:00,58.6,53.8,29.97,SE,142,0.0,0.0,84,0.00,CLR,,0.00,WeatherDisplay:10.37,2013-08-06 08:38:00,
2013-08-06 04:43:00,58.6,53.8,29.97,SE,142,0.0,0.0,84,0.00,CLR,,0.00,WeatherDisplay:10.37,2013-08-06 08:43:00,
2013-08-06 04:48:00,58.7,53.9,29.98,SE,142,0.0,0.0,84,0.00,CLR,,0.00,WeatherDisplay:10.37,2013-08-06 08:48:00,
2013-08-06 04:53:00,58.9,53.7,29.97,SE,142,0.0,0.0,83,0.00,CLR,,0.00,WeatherDisplay:10.37,2013-08-06 08:53:00,
2013-08-06 04:58:00,59.0,53.8,29.97,SE,142,0.0,0.0,83,0.00,CLR,,0.00,WeatherDisplay:10.37,2013-08-06 08:58:00,
2013-08-06 05:03:00,59.0,53.8,29.97,SE,141,0.0,0.0,83,0.00,CLR,,0.00,WeatherDisplay:10.37,2013-08-06 09:03:00,
2013-08-06 05:08:00,59.0,53.8,29.98,SE,142,0.0,0.0,83,0.00,CLR,,0.00,WeatherDisplay:10.37,2013-08-06 09:08:00,
2013-08-06 05:13:00,59.0,53.5,29.98,SE,141,0.0,0.0,82,0.00,CLR,,0.00,WeatherDisplay:10.37,2013-08-06 09:13:00,
2013-08-06 05:18:00,58.7,53.2,29.98,SE,142,0.0,0.0,82,0.00,CLR,,0.00,WeatherDisplay:10.37,2013-08-06 09:18:00,
2013-08-06 05:23:00,58.4,53.3,29.98,SE,142,0.0,0.0,83,0.00,CLR,,0.00,WeatherDisplay:10.37,2013-08-06 09:23:00,
2013-08-06 05:28:00,58.2,53.1,29.97,SE,142,0.0,0.0,83,0.00,CLR,,0.00,WeatherDisplay:10.37,2013-08-06 09:28:00,
2013-08-06 05:33:00,58.4,53.3,29.98,SE,142,0.0,0.0,83,0.00,CLR,,0.00,WeatherDisplay:10.37,2013-08-06 09:33:00,
2013-08-06 05:38:00,58.5,53.7,29.98,SE,141,0.0,0.0,84,0.00,CLR,,0.00,WeatherDisplay:10.37,2013-08-06 09:38:00,
2013-08-06 05:43:00,58.4,53.6,29.98,SE,141,0.0,0.0,84,0.00,CLR,,0.00,WeatherDisplay:10.37,2013-08-06 09:43:00,
2013-08-06 05:48:00,58.2,53.4,29.98,SE,142,0.0,0.0,84,0.00,CLR,,0.00,WeatherDisplay:10.37,2013-08-06 09:48:00,
2013-08-06 05:53:00,58.1,53.3,29.98,SE,142,2.3,2.3,84,0.00,CLR,,0.00,WeatherDisplay:10.37,2013-08-06 09:53:00,
2013-08-06 05:58:00,58.2,53.4,29.98,SE,141,0.0,0.0,84,0.00,CLR,,0.00,WeatherDisplay:10.37,2013-08-06 09:58:00,
2013-08-06 06:03:00,58.4,53.6,29.98,SE,142,0.0,0.0,84,0.00,CLR,,0.00,WeatherDisplay:10.37,2013-08-06 10:03:00,
2013-08-06 06:08:00,58.2,53.1,29.98,SE,142,0.0,0.0,83,0.00,CLR,,0.00,WeatherDisplay:10.37,2013-08-06 10:08:00,
2013-08-06 06:13:00,58.2,53.1,29.97,SE,141,0.0,0.0,83,0.00,CLR,,0.00,WeatherDisplay:10.37,2013-08-06 10:13:00,
2013-08-06 06:18:00,58.3,53.2,29.97,SE,142,0.0,0.0,83,0.00,CLR,,0.00,WeatherDisplay:10.37,2013-08-06 10:18:00,
2013-08-06 06:23:00,58.0,52.9,29.98,SE,141,0.0,0.0,83,0.00,CLR,,0.00,WeatherDisplay:10.37,2013-08-06 10:23:00,
2013-08-06 06:25:00,77.8,58.2,29.96,SSE,153,1.0,4.0,51,0.00,CLR,CLR,0.00,WeatherDisplay:10.37,2013-08-06 10:25:00,
2013-08-06 06:28:00,57.9,52.8,29.98,SE,142,0.0,0.0,83,0.00,CLR,,0.00,WeatherDisplay:10.37,2013-08-06 10:28:00,
2013-08-06 06:30:00,78.0,58.9,29.95,South,176,1.0,4.0,52,0.00,CLR,CLR,0.00,WeatherDisplay:10.37,2013-08-06 10:30:00,
2013-08-06 06:33:00,57.9,52.8,29.98,SE,142,0.0,0.0,83,0.00,CLR,,0.00,WeatherDisplay:10.37,2013-08-06 10:33:00,
2013-08-06 06:38:00,58.0,52.9,29.97,SE,142,0.0,0.0,83,0.00,CLR,,0.00,WeatherDisplay:10.37,2013-08-06 10:38:00,
2013-08-06 06:43:00,58.0,52.9,29.97,SE,142,0.0,0.0,83,0.00,CLR,,0.00,WeatherDisplay:10.37,2013-08-06 10:43:00,
2013-08-06 06:48:00,58.1,52.6,29.97,SE,141,0.0,0.0,82,0.00,CLR,,0.00,WeatherDisplay:10.37,2013-08-06 10:48:00,
2013-08-06 06:53:00,58.3,52.8,29.97,SE,142,1.0,0.0,82,0.00,CLR,,0.00,WeatherDisplay:10.37,2013-08-06 10:53:00,
2013-08-06 06:58:00,58.0,52.5,29.97,SE,141,0.0,0.0,82,0.00,CLR,,0.00,WeatherDisplay:10.37,2013-08-06 10:58:00,
2013-08-06 07:03:00,58.0,52.9,29.97,SE,142,0.0,0.0,83,0.00,CLR,,0.00,WeatherDisplay:10.37,2013-08-06 11:03:00,
2013-08-06 07:08:00,58.0,52.9,29.98,SE,142,0.0,0.0,83,0.00,CLR,,0.00,WeatherDisplay:10.37,2013-08-06 11:08:00,
2013-08-06 07:13:00,58.2,53.1,29.97,SE,142,0.0,0.0,83,0.00,CLR,,0.00,WeatherDisplay:10.37,2013-08-06 11:13:00,
2013-08-06 07:18:00,58.1,53.0,29.97,SE,142,0.0,0.0,83,0.00,CLR,,0.00,WeatherDisplay:10.37,2013-08-06 11:18:00,
2013-08-06 07:23:00,58.0,52.5,29.97,SE,141,0.0,0.0,82,0.00,CLR,,0.00,WeatherDisplay:10.37,2013-08-06 11:23:00,
2013-08-06 07:28:00,58.0,52.5,29.97,SE,142,0.0,0.0,82,0.00,CLR,,0.00,WeatherDisplay:10.37,2013-08-06 11:28:00,
2013-08-06 07:33:00,58.2,52.7,29.97,SE,142,0.0,0.0,82,0.00,CLR,,0.00,WeatherDisplay:10.37,2013-08-06 11:33:00,
2013-08-06 07:38:00,58.6,53.1,29.97,SE,142,0.0,0.0,82,0.00,CLR,,0.00,WeatherDisplay:10.37,2013-08-06 11:38:00,
2013-08-06 07:43:00,58.9,53.4,29.98,SE,142,0.0,0.0,82,0.00,CLR,,0.00,WeatherDisplay:10.37,2013-08-06 11:43:00,
2013-08-06 07:48:00,58.8,53.3,29.98,SE,142,0.0,0.0,82,0.00,CLR,,0.00,WeatherDisplay:10.37,2013-08-06 11:48:00,
2013-08-06 07:53:00,58.9,53.4,29.98,SE,142,0.0,0.0,82,0.00,CLR,,0.00,WeatherDisplay:10.37,2013-08-06 11:53:00,
2013-08-06 07:58:00,59.0,53.8,29.98,SE,142,0.0,0.0,83,0.00,CLR,,0.00,WeatherDisplay:10.37,2013-08-06 11:58:00,
2013-08-06 08:03:00,59.1,53.6,29.98,SE,141,0.0,0.0,82,0.00,CLR,,0.00,WeatherDisplay:10.37,2013-08-06 12:03:00,
2013-08-06 08:08:00,59.5,54.0,29.98,SE,141,0.0,0.0,82,0.00,CLR,,0.00,WeatherDisplay:10.37,2013-08-06 12:08:00,
2013-08-06 08:13:00,59.6,54.1,29.99,SE,142,2.3,2.3,82,0.00,CLR,,0.00,WeatherDisplay:10.37,2013-08-06 12:13:00,
2013-08-06 08:18:00,60.4,54.5,29.99,SE,142,0.0,0.0,81,0.00,CLR,,0.00,WeatherDisplay:10.37,2013-08-06 12:18:00,
2013-08-06 08:23:00,60.6,54.7,29.99,SE,142,0.0,0.0,81,0.00,CLR,,0.00,WeatherDisplay:10.37,2013-08-06 12:23:00,
2013-08-06 08:28:00,60.8,54.6,29.99,SE,141,0.0,0.0,80,0.00,CLR,,0.00,WeatherDisplay:10.37,2013-08-06 12:28:00,
2013-08-06 08:33:00,61.1,54.9,29.99,SE,142,0.0,0.0,80,0.00,CLR,,0.00,WeatherDisplay:10.37,2013-08-06 12:33:00,
2013-08-06 08:38:00,61.3,55.1,29.99,NE,39,1.2,1.2,80,0.00,CLR,,0.00,WeatherDisplay:10.37,2013-08-06 12:38:00,
2013-08-06 08:43:00,61.5,54.9,29.99,NE,39,0.0,0.0,79,0.00,CLR,,0.00,WeatherDisplay:10.37,2013-08-06 12:43:00,
2013-08-06 08:48:00,61.9,55.3,30.00,NE,39,0.0,0.0,79,0.00,CLR,,0.00,WeatherDisplay:10.37,2013-08-06 12:48:00,
2013-08-06 08:53:00,62.1,55.2,29.99,NE,39,0.0,0.0,78,0.00,CLR,,0.00,WeatherDisplay:10.37,2013-08-06 12:53:00,
2013-08-06 08:58:00,62.7,55.7,29.99,NE,39,0.0,0.0,78,0.00,CLR,,0.00,WeatherDisplay:10.37,2013-08-06 12:58:00,
2013-08-06 09:03:00,63.0,56.0,29.99,NE,37,0.0,0.0,78,0.00,CLR,,0.00,WeatherDisplay:10.37,2013-08-06 13:03:00,
2013-08-06 09:08:00,63.2,55.9,30.00,NE,37,0.0,0.0,77,0.00,CLR,,0.00,WeatherDisplay:10.37,2013-08-06 13:08:00,
2013-08-06 09:13:00,63.9,56.2,30.00,South,182,1.2,0.0,76,0.00,CLR,,0.00,WeatherDisplay:10.37,2013-08-06 13:13:00,
2013-08-06 09:18:00,64.2,56.1,30.00,SW,218,1.2,0.0,75,0.00,CLR,,0.00,WeatherDisplay:10.37,2013-08-06 13:18:00,
2013-08-06 09:23:00,64.7,57.0,30.00,SW,218,1.2,0.0,76,0.00,CLR,,0.00,WeatherDisplay:10.37,2013-08-06 13:23:00,
2013-08-06 09:28:00,65.3,56.4,30.00,SSW,198,3.5,3.5,73,0.00,CLR,,0.00,WeatherDisplay:10.37,2013-08-06 13:28:00,
2013-08-06 09:33:00,65.6,56.3,30.00,SW,215,1.2,1.2,72,0.00,CLR,,0.00,WeatherDisplay:10.37,2013-08-06 13:33:00,
2013-08-06 09:38:00,65.9,56.6,30.00,SSW,194,2.3,2.3,72,0.00,CLR,,0.00,WeatherDisplay:10.37,2013-08-06 13:38:00,
2013-08-06 09:43:00,66.1,56.4,30.00,SSW,192,1.2,1.2,71,0.00,CLR,,0.00,WeatherDisplay:10.37,2013-08-06 13:43:00,
2013-08-06 09:48:00,66.6,57.3,30.00,SSW,195,5.0,5.0,72,0.00,CLR,,0.00,WeatherDisplay:10.37,2013-08-06 13:48:00,
2013-08-06 09:53:00,67.4,57.7,30.00,SSW,200,4.0,4.0,71,0.00,CLR,,0.00,WeatherDisplay:10.37,2013-08-06 13:53:00,
2013-08-06 09:58:00,67.6,55.8,30.00,SSE,148,0.0,0.0,66,0.00,CLR,,0.00,WeatherDisplay:10.37,2013-08-06 13:58:00,
2013-08-06 10:03:00,67.8,56.4,30.00,SE,146,3.5,3.5,67,0.00,CLR,,0.00,WeatherDisplay:10.37,2013-08-06 14:03:00,
2013-08-06 10:08:00,68.5,58.3,30.00,SW,214,6.0,6.0,70,0.00,CLR,,0.00,WeatherDisplay:10.37,2013-08-06 14:08:00,
2013-08-06 10:13:00,69.0,57.2,30.00,SSW,205,3.5,3.5,66,0.00,CLR,,0.00,WeatherDisplay:10.37,2013-08-06 14:13:00,
2013-08-06 10:18:00,69.3,57.5,30.00,SW,217,3.5,3.5,66,0.00,CLR,,0.00,WeatherDisplay:10.37,2013-08-06 14:18:00,
2013-08-06 10:23:00,69.9,58.0,30.00,SW,223,6.0,6.0,66,0.00,CLR,,0.00,WeatherDisplay:10.37,2013-08-06 14:23:00,
2013-08-06 10:28:00,70.1,57.4,30.00,SSW,193,3.5,3.5,64,0.00,CLR,,0.00,WeatherDisplay:10.37,2013-08-06 14:28:00,
2013-08-06 10:33:00,70.0,57.3,30.00,South,172,4.6,4.6,64,0.00,CLR,,0.00,WeatherDisplay:10.37,2013-08-06 14:33:00,
2013-08-06 10:38:00,70.2,57.9,30.00,South,182,3.0,3.0,65,0.00,CLR,,0.00,WeatherDisplay:10.37,2013-08-06 14:38:00,
2013-08-06 10:43:00,70.6,58.3,30.00,ESE,119,1.2,1.2,65,0.00,CLR,,0.00,WeatherDisplay:10.37,2013-08-06 14:43:00,
2013-08-06 10:48:00,70.9,58.5,30.00,South,190,4.6,4.6,65,0.00,CLR,,0.00,WeatherDisplay:10.37,2013-08-06 14:48:00,
2013-08-06 10:53:00,71.1,58.3,30.00,West,264,3.5,3.5,64,0.00,CLR,,0.00,WeatherDisplay:10.37,2013-08-06 14:53:00,
2013-08-06 10:58:00,71.7,60.6,30.00,NNE,13,2.3,2.3,68,0.00,CLR,,0.00,WeatherDisplay:10.37,2013-08-06 14:58:00,
2013-08-06 11:03:00,71.6,58.3,30.00,ENE,67,1.2,1.2,63,0.00,CLR,,0.00,WeatherDisplay:10.37,2013-08-06 15:03:00,
2013-08-06 11:08:00,71.5,55.5,30.00,South,183,2.3,2.3,57,0.00,CLR,,0.00,WeatherDisplay:10.37,2013-08-06 15:08:00,
2013-08-06 11:13:00,72.1,55.5,30.00,SE,132,4.6,4.6,56,0.00,CLR,,0.00,WeatherDisplay:10.37,2013-08-06 15:13:00,
2013-08-06 11:18:00,71.9,55.8,30.00,South,169,3.0,3.0,57,0.00,CLR,,0.00,WeatherDisplay:10.37,2013-08-06 15:18:00,
2013-08-06 11:23:00,71.8,54.8,30.00,South,173,1.2,0.0,55,0.00,CLR,,0.00,WeatherDisplay:10.37,2013-08-06 15:23:00,
2013-08-06 11:25:00,71.8,55.3,30.00,East,79,1.2,1.2,56,0.00,CLR,,0.00,WeatherDisplay:10.37,2013-08-06 15:25:00,
2013-08-06 11:30:00,72.7,56.6,30.00,SSE,150,1.2,1.2,57,0.00,CLR,,0.00,WeatherDisplay:10.37,2013-08-06 15:30:00,
2013-08-06 11:35:00,72.3,56.7,30.00,SE,138,4.0,4.0,58,0.00,CLR,,0.00,WeatherDisplay:10.37,2013-08-06 15:35:00,
2013-08-06 11:40:00,72.6,56.0,30.00,South,187,0.0,0.0,56,0.00,CLR,,0.00,WeatherDisplay:10.37,2013-08-06 15:40:00,
2013-08-06 11:45:00,73.4,56.7,30.00,WSW,239,4.6,4.6,56,0.00,CLR,,0.00,WeatherDisplay:10.37,2013-08-06 15:45:00,
2013-08-06 11:50:00,74.1,56.9,30.00,SSW,204,0.0,4.0,55,0.00,CLR,CLR,0.00,WeatherDisplay:10.37,2013-08-06 15:50:00,
2013-08-06 11:55:00,73.9,57.7,29.99,South,188,2.0,0.0,57,0.00,CLR,,0.00,WeatherDisplay:10.37,2013-08-06 15:55:00,
2013-08-06 12:00:00,73.9,56.7,29.99,SW,222,5.0,5.0,55,0.00,CLR,,0.00,WeatherDisplay:10.37,2013-08-06 16:00:00,
2013-08-06 12:05:00,73.7,55.5,29.99,SSE,163,1.2,1.2,53,0.00,CLR,,0.00,WeatherDisplay:10.37,2013-08-06 16:05:00,
2013-08-06 12:10:00,73.9,56.2,29.99,SSW,200,6.0,6.0,54,0.00,CLR,,0.00,WeatherDisplay:10.37,2013-08-06 16:10:00,
2013-08-06 12:15:00,74.2,58.0,29.99,SSW,195,7.0,7.0,57,0.00,CLR,,0.00,WeatherDisplay:10.37,2013-08-06 16:15:00,
2013-08-06 12:20:00,74.9,58.1,29.99,West,260,1.2,1.2,56,0.00,CLR,,0.00,WeatherDisplay:10.37,2013-08-06 16:20:00,
2013-08-06 12:25:00,74.7,58.5,29.99,NE,51,2.3,2.3,57,0.00,CLR,,0.00,WeatherDisplay:10.37,2013-08-06 16:25:00,
2013-08-06 12:30:00,74.2,55.4,29.99,NW,315,0.0,0.0,52,0.00,CLR,,0.00,WeatherDisplay:10.37,2013-08-06 16:30:00,
2013-08-06 12:35:00,74.2,59.4,29.99,North,360,1.2,0.0,60,0.00,CLR,,0.00,WeatherDisplay:10.37,2013-08-06 16:35:00,
2013-08-06 12:40:00,74.0,58.8,29.98,NE,44,1.2,1.2,59,0.00,CLR,,0.00,WeatherDisplay:10.37,2013-08-06 16:40:00,
2013-08-06 12:45:00,74.1,58.4,29.98,North,349,3.0,3.0,58,0.00,CLR,,0.00,WeatherDisplay:10.37,2013-08-06 16:45:00,
2013-08-06 12:50:00,74.7,60.8,29.98,NNE,26,3.5,3.5,62,0.00,CLR,,0.00,WeatherDisplay:10.37,2013-08-06 16:50:00,
2013-08-06 12:55:00,74.9,60.1,29.98,NE,38,2.3,2.3,60,0.00,CLR,,0.00,WeatherDisplay:10.37,2013-08-06 16:55:00,
2013-08-06 13:00:00,74.4,57.7,29.98,SE,143,1.2,1.2,56,0.00,CLR,,0.00,WeatherDisplay:10.37,2013-08-06 17:00:00,
2013-08-06 13:05:00,75.3,61.4,29.98,NNE,14,3.5,3.5,62,0.00,CLR,,0.00,WeatherDisplay:10.37,2013-08-06 17:05:00,
2013-08-06 13:10:00,75.4,57.6,29.98,South,177,4.6,4.6,54,0.00,CLR,,0.00,WeatherDisplay:10.37,2013-08-06 17:10:00,
2013-08-06 13:15:00,76.2,58.9,29.98,West,264,7.0,7.0,55,0.00,CLR,,0.00,WeatherDisplay:10.37,2013-08-06 17:15:00,
2013-08-06 13:20:00,76.6,57.7,29.97,SW,216,9.2,9.2,52,0.00,CLR,,0.00,WeatherDisplay:10.37,2013-08-06 17:20:00,
2013-08-06 13:25:00,76.7,57.2,29.97,South,191,6.0,6.0,51,0.00,CLR,,0.00,WeatherDisplay:10.37,2013-08-06 17:25:00,
2013-08-06 13:27:00,76.6,56.6,29.97,South,180,10.4,10.4,50,0.00,CLR,,0.00,WeatherDisplay:10.37,2013-08-06 17:27:00,
2013-08-06 13:32:00,75.9,58.6,29.97,SW,219,10.0,10.0,55,0.00,CLR,,0.00,WeatherDisplay:10.37,2013-08-06 17:32:00,
2013-08-06 13:37:00,76.9,59.0,29.97,SW,229,7.0,7.0,54,0.00,CLR,,0.00,WeatherDisplay:10.37,2013-08-06 17:37:00,
2013-08-06 13:42:00,76.3,59.4,29.97,North,355,1.2,1.2,56,0.00,CLR,,0.00,WeatherDisplay:10.37,2013-08-06 17:42:00,
2013-08-06 13:47:00,76.6,59.7,29.97,SSW,213,7.0,7.0,56,0.00,CLR,,0.00,WeatherDisplay:10.37,2013-08-06 17:47:00,
2013-08-06 13:52:00,76.8,58.4,29.97,NNE,16,1.2,1.2,53,0.00,CLR,,0.00,WeatherDisplay:10.37,2013-08-06 17:52:00,
2013-08-06 13:57:00,76.3,58.4,29.98,ESE,103,1.2,0.0,54,0.00,CLR,,0.00,WeatherDisplay:10.37,2013-08-06 17:57:00,
2013-08-06 14:02:00,76.3,59.4,29.97,SSW,202,4.0,4.0,56,0.00,CLR,,0.00,WeatherDisplay:10.37,2013-08-06 18:02:00,
2013-08-06 14:07:00,77.0,58.6,29.97,SSW,198,10.4,10.4,53,0.00,CLR,,0.00,WeatherDisplay:10.37,2013-08-06 18:07:00,
2013-08-06 14:12:00,76.7,58.3,29.97,South,179,10.4,10.4,53,0.00,CLR,,0.00,WeatherDisplay:10.37,2013-08-06 18:12:00,
2013-08-06 14:17:00,76.7,58.8,29.96,SSW,211,13.0,13.0,54,0.00,CLR,,0.00,WeatherDisplay:10.37,2013-08-06 18:17:00,
2013-08-06 14:22:00,77.5,60.1,29.96,SE,140,3.0,3.0,55,0.00,CLR,,0.00,WeatherDisplay:10.37,2013-08-06 18:22:00,
2013-08-06 14:27:00,76.3,56.3,29.97,SE,124,4.0,4.0,50,0.00,CLR,,0.00,WeatherDisplay:10.37,2013-08-06 18:27:00,
2013-08-06 14:32:00,76.8,62.3,29.96,NE,41,2.3,2.3,61,0.00,CLR,,0.00,WeatherDisplay:10.37,2013-08-06 18:32:00,
2013-08-06 14:37:00,76.4,56.4,29.96,SW,217,6.0,6.0,50,0.00,CLR,,0.00,WeatherDisplay:10.37,2013-08-06 18:37:00,
2013-08-06 14:42:00,77.8,59.3,29.97,East,92,2.3,2.3,53,0.00,CLR,,0.00,WeatherDisplay:10.37,2013-08-06 18:42:00,
2013-08-06 14:47:00,77.1,57.6,29.97,North,11,1.2,1.2,51,0.00,CLR,,0.00,WeatherDisplay:10.37,2013-08-06 18:47:00,
2013-08-06 14:52:00,77.0,56.9,29.96,SW,215,11.5,11.5,50,0.00,CLR,,0.00,WeatherDisplay:10.37,2013-08-06 18:52:00,
2013-08-06 14:57:00,78.3,57.6,29.97,SW,215,7.0,7.0,49,0.00,CLR,,0.00,WeatherDisplay:10.37,2013-08-06 18:57:00,
2013-08-06 15:02:00,78.7,57.4,29.97,SSW,194,10.0,10.0,48,0.00,CLR,,0.00,WeatherDisplay:10.37,2013-08-06 19:02:00,
2013-08-06 15:07:00,77.8,56.5,29.97,South,187,6.0,6.0,48,0.00,CLR,,0.00,WeatherDisplay:10.37,2013-08-06 19:07:00,
2013-08-06 15:12:00,77.3,56.1,29.97,SSW,207,6.0,6.0,48,0.00,CLR,,0.00,WeatherDisplay:10.37,2013-08-06 19:12:00,
2013-08-06 15:17:00,77.7,57.6,29.97,SW,217,3.5,3.5,50,0.00,CLR,,0.00,WeatherDisplay:10.37,2013-08-06 19:17:00,
2013-08-06 15:22:00,79.1,58.9,29.97,WSW,244,5.8,5.8,50,0.00,CLR,,0.00,WeatherDisplay:10.37,2013-08-06 19:22:00,
2013-08-06 15:27:00,79.1,58.3,29.97,ESE,117,4.0,4.0,49,0.00,CLR,,0.00,WeatherDisplay:10.37,2013-08-06 19:27:00,
2013-08-06 15:32:00,78.2,56.3,29.97,ENE,69,1.2,1.2,47,0.00,CLR,,0.00,WeatherDisplay:10.37,2013-08-06 19:32:00,
2013-08-06 15:37:00,77.5,55.7,29.96,North,11,1.2,0.0,47,0.00,CLR,,0.00,WeatherDisplay:10.37,2013-08-06 19:37:00,
2013-08-06 15:42:00,78.4,60.4,29.96,WSW,239,7.0,7.0,54,0.00,CLR,,0.00,WeatherDisplay:10.37,2013-08-06 19:42:00,
2013-08-06 15:47:00,79.0,58.8,29.96,South,189,10.0,10.0,50,0.00,CLR,,0.00,WeatherDisplay:10.37,2013-08-06 19:47:00,
2013-08-06 15:52:00,79.1,60.5,29.96,ESE,122,4.0,4.0,53,0.00,CLR,,0.00,WeatherDisplay:10.37,2013-08-06 19:52:00,
2013-08-06 15:57:00,78.5,57.7,29.96,SSW,193,6.9,6.9,49,0.00,CLR,,0.00,WeatherDisplay:10.37,2013-08-06 19:57:00,
2013-08-06 16:02:00,78.3,58.1,29.95,SW,229,8.1,8.1,50,0.00,CLR,,0.00,WeatherDisplay:10.37,2013-08-06 20:02:00,
2013-08-06 16:07:00,78.8,56.9,29.95,South,187,9.2,9.2,47,0.00,CLR,,0.00,WeatherDisplay:10.37,2013-08-06 20:07:00,
2013-08-06 16:12:00,78.9,58.7,29.96,South,191,10.4,10.4,50,0.00,CLR,,0.00,WeatherDisplay:10.37,2013-08-06 20:12:00,
2013-08-06 16:17:00,78.7,58.5,29.95,SW,223,7.0,7.0,50,0.00,CLR,,0.00,WeatherDisplay:10.37,2013-08-06 20:17:00,
2013-08-06 16:22:00,77.8,57.1,29.96,SW,227,4.0,4.0,49,0.00,CLR,,0.00,WeatherDisplay:10.37,2013-08-06 20:22:00,
2013-08-06 16:33:00,77.5,55.7,29.95,SSW,203,2.3,2.3,47,0.00,CLR,,0.00,WeatherDisplay:10.37,2013-08-06 20:33:00,
2013-08-06 16:34:00,77.6,59.1,29.95,SW,221,2.3,2.3,53,0.00,CLR,,0.00,WeatherDisplay:10.37,2013-08-06 20:34:00,
2013-08-06 16:39:00,78.3,59.8,29.95,SW,221,6.9,6.9,53,0.00,CLR,,0.00,WeatherDisplay:10.37,2013-08-06 20:39:00,
2013-08-06 16:44:00,78.7,59.0,29.95,SW,230,8.1,8.1,51,0.00,CLR,,0.00,WeatherDisplay:10.37,2013-08-06 20:44:00,
2013-08-06 16:49:00,78.7,57.9,29.95,SW,229,6.0,6.0,49,0.00,CLR,,0.00,WeatherDisplay:10.37,2013-08-06 20:49:00,
2013-08-06 16:54:00,78.9,58.7,29.95,SW,216,7.0,7.0,50,0.00,CLR,,0.00,WeatherDisplay:10.37,2013-08-06 20:54:00,
2013-08-06 16:59:00,78.7,57.4,29.95,SW,219,7.0,7.0,48,0.00,CLR,,0.00,WeatherDisplay:10.37,2013-08-06 20:59:00,
2013-08-06 17:04:00,77.7,57.6,29.95,East,96,4.0,4.0,50,0.00,CLR,,0.00,WeatherDisplay:10.37,2013-08-06 21:04:00,
2013-08-06 17:09:00,77.4,57.3,29.95,SE,128,0.0,0.0,50,0.00,CLR,,0.00,WeatherDisplay:10.37,2013-08-06 21:09:00,
2013-08-06 17:14:00,78.0,57.3,29.95,South,183,8.1,8.1,49,0.00,CLR,,0.00,WeatherDisplay:10.37,2013-08-06 21:14:00,
2013-08-06 17:19:00,78.2,56.3,29.95,South,187,4.6,4.6,47,0.00,CLR,,0.00,WeatherDisplay:10.37,2013-08-06 21:19:00,
2013-08-06 17:24:00,78.5,59.4,29.94,WSW,252,7.0,7.0,52,0.00,CLR,,0.00,WeatherDisplay:10.37,2013-08-06 21:24:00,
2013-08-06 17:29:00,78.1,57.9,29.94,WSW,247,3.5,3.5,50,0.00,CLR,,0.00,WeatherDisplay:10.37,2013-08-06 21:29:00,
2013-08-06 17:34:00,77.8,56.0,29.95,South,178,3.5,3.5,47,0.00,CLR,,0.00,WeatherDisplay:10.37,2013-08-06 21:34:00,
2013-08-06 17:39:00,77.5,56.8,29.94,SW,228,6.0,6.0,49,0.00,CLR,,0.00,WeatherDisplay:10.37,2013-08-06 21:39:00,
2013-08-06 17:44:00,77.7,56.4,29.94,South,186,4.6,4.6,48,0.00,CLR,,0.00,WeatherDisplay:10.37,2013-08-06 21:44:00,
2013-08-06 17:49:00,76.7,56.7,29.94,South,180,1.2,0.0,50,0.00,CLR,,0.00,WeatherDisplay:10.37,2013-08-06 21:49:00,
2013-08-06 17:54:00,76.8,57.3,29.95,SW,217,6.0,6.0,51,0.00,CLR,,0.00,WeatherDisplay:10.37,2013-08-06 21:54:00,
2013-08-06 17:59:00,77.1,57.0,29.94,SSW,192,3.5,0.0,50,0.00,CLR,,0.00,WeatherDisplay:10.37,2013-08-06 21:59:00,
2013-08-06 18:04:00,77.3,57.8,29.94,SSW,213,6.0,6.0,51,0.00,CLR,,0.00,WeatherDisplay:10.37,2013-08-06 22:04:00,
2013-08-06 18:09:00,77.4,57.9,29.95,SW,216,3.0,3.0,51,0.00,CLR,,0.00,WeatherDisplay:10.37,2013-08-06 22:09:00,
2013-08-06 18:14:00,77.5,57.9,29.95,WSW,246,5.0,5.0,51,0.00,CLR,,0.00,WeatherDisplay:10.37,2013-08-06 22:14:00,
2013-08-06 18:19:00,77.5,59.0,29.95,SW,217,4.0,4.0,53,0.00,CLR,,0.00,WeatherDisplay:10.37,2013-08-06 22:19:00,
2013-08-06 18:24:00,77.5,58.5,29.95,South,183,8.1,8.1,52,0.00,CLR,,0.00,WeatherDisplay:10.37,2013-08-06 22:24:00,
2013-08-06 18:29:00,77.5,58.5,29.95,SSW,211,6.0,6.0,52,0.00,CLR,,0.00,WeatherDisplay:10.37,2013-08-06 22:29:00,
2013-08-06 18:34:00,77.4,59.5,29.95,SW,235,4.0,4.0,54,0.00,CLR,,0.00,WeatherDisplay:10.37,2013-08-06 22:34:00,
2013-08-06 18:39:00,77.1,57.6,29.94,SW,230,6.0,6.0,51,0.00,CLR,,0.00,WeatherDisplay:10.37,2013-08-06 22:39:00,
2013-08-06 18:44:00,77.0,56.9,29.95,SW,233,4.0,4.0,50,0.00,CLR,,0.00,WeatherDisplay:10.37,2013-08-06 22:44:00,
2013-08-06 18:49:00,76.9,57.4,29.95,SW,223,5.0,5.0,51,0.00,CLR,,0.00,WeatherDisplay:10.37,2013-08-06 22:49:00,
2013-08-06 18:54:00,76.8,57.8,29.95,WSW,237,5.8,5.8,52,0.00,CLR,,0.00,WeatherDisplay:10.37,2013-08-06 22:54:00,
2013-08-06 18:59:00,76.6,58.2,29.95,SW,235,4.0,4.0,53,0.00,CLR,,0.00,WeatherDisplay:10.37,2013-08-06 22:59:00,
2013-08-06 19:04:00,76.2,57.8,29.95,WSW,242,3.0,3.0,53,0.00,CLR,,0.00,WeatherDisplay:10.37,2013-08-06 23:04:00,
2013-08-06 19:09:00,76.0,58.7,29.95,SW,221,3.5,3.5,55,0.00,CLR,,0.00,WeatherDisplay:10.37,2013-08-06 23:09:00,
2013-08-06 19:14:00,76.0,58.7,29.95,SW,227,3.5,3.5,55,0.00,CLR,,0.00,WeatherDisplay:10.37,2013-08-06 23:14:00,
2013-08-06 19:19:00,76.0,58.7,29.94,SW,226,1.2,0.0,55,0.00,CLR,,0.00,WeatherDisplay:10.37,2013-08-06 23:19:00,
2013-08-06 19:24:00,75.9,59.1,29.94,SW,227,0.0,0.0,56,0.00,CLR,,0.00,WeatherDisplay:10.37,2013-08-06 23:24:00,
2013-08-06 19:29:00,75.5,58.7,29.94,SW,227,1.2,0.0,56,0.00,CLR,,0.00,WeatherDisplay:10.37,2013-08-06 23:29:00,
2013-08-06 19:34:00,75.4,58.1,29.94,SW,227,1.2,1.2,55,0.00,CLR,,0.00,WeatherDisplay:10.37,2013-08-06 23:34:00,
2013-08-06 19:39:00,75.3,58.5,29.94,SW,228,1.2,0.0,56,0.00,CLR,,0.00,WeatherDisplay:10.37,2013-08-06 23:39:00,
2013-08-06 19:44:00,75.0,57.7,29.94,SW,228,1.2,1.2,55,0.00,CLR,,0.00,WeatherDisplay:10.37,2013-08-06 23:44:00,
2013-08-06 19:49:00,74.9,58.1,29.94,SW,227,1.2,0.0,56,0.00,CLR,,0.00,WeatherDisplay:10.37,2013-08-06 23:49:00,
2013-08-06 19:54:00,74.8,58.1,29.94,SW,227,0.0,0.0,56,0.00,CLR,,0.00,WeatherDisplay:10.37,2013-08-06 23:54:00,
2013-08-06 19:59:00,74.7,58.0,29.94,SW,227,1.2,0.0,56,0.00,CLR,,0.00,WeatherDisplay:10.37,2013-08-06 23:59:00,
2013-08-06 20:04:00,74.4,58.2,29.94,SW,233,0.0,0.0,57,0.00,CLR,,0.00,WeatherDisplay:10.37,2013-08-07 00:04:00,
2013-08-06 20:09:00,74.0,57.8,29.94,SW,233,0.0,0.0,57,0.00,CLR,,0.00,WeatherDisplay:10.37,2013-08-07 00:09:00,
2013-08-06 20:14:00,73.5,57.3,29.94,SW,233,0.0,0.0,57,0.00,CLR,,0.00,WeatherDisplay:10.37,2013-08-07 00:14:00,
2013-08-06 20:19:00,73.1,57.4,29.94,SW,233,0.0,0.0,58,0.00,CLR,,0.00,WeatherDisplay:10.37,2013-08-07 00:19:00,
2013-08-06 20:24:00,72.9,57.3,29.94,SW,233,0.0,0.0,58,0.00,CLR,,0.00,WeatherDisplay:10.37,2013-08-07 00:24:00,
2013-08-06 20:29:00,72.7,56.6,29.94,SW,233,0.0,0.0,57,0.00,CLR,,0.00,WeatherDisplay:10.37,2013-08-07 00:29:00,
2013-08-06 20:34:00,72.6,56.5,29.94,SW,233,0.0,0.0,57,0.00,CLR,,0.00,WeatherDisplay:10.37,2013-08-07 00:34:00,
2013-08-06 20:39:00,72.4,56.3,29.93,SW,233,0.0,0.0,57,0.00,CLR,,0.00,WeatherDisplay:10.37,2013-08-07 00:39:00,
2013-08-06 20:44:00,72.2,56.1,29.93,SW,233,0.0,0.0,57,0.00,CLR,,0.00,WeatherDisplay:10.37,2013-08-07 00:44:00,
2013-08-06 20:50:00,72.2,57.1,29.93,SW,233,0.0,0.0,59,0.00,CLR,,0.00,WeatherDisplay:10.37,2013-08-07 00:50:00,
2013-08-06 20:55:00,72.1,57.4,29.93,SW,233,0.0,0.0,60,0.00,CLR,,0.00,WeatherDisplay:10.37,2013-08-07 00:55:00,
2013-08-06 21:00:00,72.1,58.4,29.93,SW,233,0.0,0.0,62,0.00,CLR,,0.00,WeatherDisplay:10.37,2013-08-07 01:00:00,
2013-08-06 21:05:00,71.9,58.2,29.93,SW,233,0.0,0.0,62,0.00,CLR,,0.00,WeatherDisplay:10.37,2013-08-07 01:05:00,
2013-08-06 21:10:00,71.6,58.3,29.93,SW,233,0.0,0.0,63,0.00,CLR,,0.00,WeatherDisplay:10.37,2013-08-07 01:10:00,
2013-08-06 21:15:00,71.5,57.8,29.94,SW,233,0.0,0.0,62,0.00,CLR,,0.00,WeatherDisplay:10.37,2013-08-07 01:15:00,
2013-08-06 21:20:00,71.4,58.6,29.93,SW,233,0.0,0.0,64,0.00,CLR,,0.00,WeatherDisplay:10.37,2013-08-07 01:20:00,
2013-08-06 21:25:00,71.3,58.5,29.93,SW,233,0.0,0.0,64,0.00,CLR,CLR,0.00,WeatherDisplay:10.37,2013-08-07 01:25:00,
2013-08-06 21:30:00,71.2,58.4,29.93,SW,233,0.0,0.0,64,0.00,CLR,CLR,0.00,WeatherDisplay:10.37,2013-08-07 01:30:00,
2013-08-06 21:35:00,71.1,57.0,29.94,SW,233,0.0,0.0,61,0.00,CLR,CLR,0.00,WeatherDisplay:10.37,2013-08-07 01:35:00,
2013-08-06 21:40:00,71.0,56.9,29.93,SW,233,0.0,0.0,61,0.00,CLR,CLR,0.00,WeatherDisplay:10.37,2013-08-07 01:40:00,
2013-08-06 21:45:00,71.1,56.0,29.94,SW,227,0.0,1.0,59,0.00,CLR,CLR,0.00,WeatherDisplay:10.37,2013-08-07 01:45:00,
2013-08-06 21:50:00,71.5,55.9,29.94,SSW,198,0.0,1.0,58,0.00,CLR,CLR,0.00,WeatherDisplay:10.37,2013-08-07 01:50:00,
2013-08-06 21:55:00,72.0,55.9,29.94,SSW,194,0.0,0.0,57,0.00,CLR,,0.00,WeatherDisplay:10.37,2013-08-07 01:55:00,
2013-08-06 22:00:00,72.3,56.2,29.94,SSW,194,0.0,0.0,57,0.00,CLR,,0.00,WeatherDisplay:10.37,2013-08-07 02:00:00,
2013-08-06 22:05:00,72.7,56.1,29.94,SSW,194,0.0,0.0,56,0.00,CLR,,0.00,WeatherDisplay:10.37,2013-08-07 02:05:00,
2013-08-06 22:10:00,72.8,56.2,29.94,SSW,194,0.0,0.0,56,0.00,CLR,,0.00,WeatherDisplay:10.37,2013-08-07 02:10:00,
2013-08-06 22:15:00,72.8,56.2,29.94,SSW,194,0.0,0.0,56,0.00,CLR,,0.00,WeatherDisplay:10.37,2013-08-07 02:15:00,
2013-08-06 22:20:00,72.8,56.2,29.94,SSW,194,0.0,0.0,56,0.00,CLR,,0.00,WeatherDisplay:10.37,2013-08-07 02:20:00,
2013-08-06 22:25:00,72.9,56.8,29.95,SSW,194,0.0,0.0,57,0.00,CLR,,0.00,WeatherDisplay:10.37,2013-08-07 02:25:00,
2013-08-06 22:30:00,72.9,56.8,29.95,SSW,192,0.0,0.0,57,0.00,CLR,,0.00,WeatherDisplay:10.37,2013-08-07 02:30:00,
2013-08-06 22:35:00,72.8,56.7,29.94,SSW,192,0.0,0.0,57,0.00,CLR,,0.00,WeatherDisplay:10.37,2013-08-07 02:35:00,
2013-08-06 22:40:00,72.7,56.6,29.94,SSE,165,1.2,1.2,57,0.00,CLR,,0.00,WeatherDisplay:10.37,2013-08-07 02:40:00,
2013-08-06 22:45:00,72.3,56.2,29.94,SE,126,2.3,2.3,57,0.00,CLR,,0.00,WeatherDisplay:10.37,2013-08-07 02:45:00,
2013-08-06 22:50:00,72.0,56.4,29.94,SE,140,1.2,1.2,58,0.00,CLR,,0.00,WeatherDisplay:10.37,2013-08-07 02:50:00,
2013-08-06 22:55:00,71.8,57.2,29.94,SE,138,1.2,1.2,60,0.00,CLR,,0.00,WeatherDisplay:10.37,2013-08-07 02:55:00,
2013-08-06 23:00:00,71.3,57.6,29.95,SE,130,4.0,4.0,62,0.00,CLR,,0.00,WeatherDisplay:10.37,2013-08-07 03:00:00,
2013-08-06 23:05:00,70.9,57.7,29.94,SE,144,4.0,4.0,63,0.00,CLR,,0.00,WeatherDisplay:10.37,2013-08-07 03:05:00,
2013-08-06 23:10:00,70.7,57.5,29.94,SE,126,1.2,1.2,63,0.00,CLR,,0.00,WeatherDisplay:10.37,2013-08-07 03:10:00,
2013-08-06 23:15:00,70.7,57.5,29.94,SE,126,3.5,3.5,63,0.00,CLR,,0.00,WeatherDisplay:10.37,2013-08-07 03:15:00,
2013-08-06 23:20:00,70.7,57.5,29.94,SSE,161,3.5,3.5,63,0.00,CLR,,0.00,WeatherDisplay:10.37,2013-08-07 03:20:00,
2013-08-06 23:25:00,70.8,57.6,29.94,SE,146,1.2,1.2,63,0.00,CLR,,0.00,WeatherDisplay:10.37,2013-08-07 03:25:00,
2013-08-06 23:30:00,70.8,58.0,29.94,SE,146,8.1,8.1,64,0.00,CLR,,0.00,WeatherDisplay:10.37,2013-08-07 03:30:00,
2013-08-06 23:35:00,70.5,58.2,29.94,SSE,153,3.5,3.5,65,0.00,CLR,,0.00,WeatherDisplay:10.37,2013-08-07 03:35:00,
2013-08-06 23:40:00,70.1,58.2,29.94,SE,133,1.2,0.0,66,0.00,CLR,,0.00,WeatherDisplay:10.37,2013-08-07 03:40:00,
2013-08-06 23:45:00,69.7,58.3,29.94,SE,126,3.5,3.5,67,0.00,CLR,,0.00,WeatherDisplay:10.37,2013-08-07 03:45:00,
2013-08-06 23:50:00,69.2,58.2,29.94,SSE,152,2.3,2.3,68,0.00,CLR,,0.00,WeatherDisplay:10.37,2013-08-07 03:50:00,
2013-08-06 23:55:00,69.0,58.4,29.94,SSW,199,5.0,5.0,69,0.00,CLR,,0.00,WeatherDisplay:10.37,2013-08-07 03:55:00,